Time,TemperatureF,DewpointF,PressureIn,WindDirection,WindDirectionDegrees,WindSpeedMPH,WindSpeedGustMPH,Humidity,HourlyPrecipIn,Conditions,Clouds,dailyrainin,SoftwareType,DateUTC
2013-05-21 00:02:00,45.0,31.0,-100.00,NW,323,2.0,6.0,58,0.00,,,0.00,,2013-05-21 06:02:00,
2013-05-21 00:12:00,45.0,31.0,-100.00,NW,323,2.0,6.0,58,0.00,,,0.00,,2013-05-21 06:12:00,
2013-05-21 00:21:00,45.0,31.0,-100.00,NW,323,2.0,6.0,58,0.00,,,0.00,,2013-05-21 06:21:00,
2013-05-21 00:32:00,45.0,31.0,-100.00,NW,323,2.0,6.0,58,0.00,,,0.00,,2013-05-21 06:32:00,
2013-05-21 00:40:00,44.0,31.0,-100.00,NW,319,3.0,6.0,60,0.00,,,0.00,,2013-05-21 06:40:00,
2013-05-21 01:01:00,44.0,31.0,-100.00,NW,319,3.0,6.0,60,0.00,,,0.00,,2013-05-21 07:01:00,
2013-05-21 01:11:00,44.0,31.0,-100.00,NW,319,3.0,6.0,60,0.00,,,0.00,,2013-05-21 07:11:00,
2013-05-21 01:22:00,44.0,31.0,-100.00,NW,319,3.0,6.0,60,0.00,,,0.00,,2013-05-21 07:22:00,
2013-05-21 01:31:00,44.0,31.0,-100.00,NW,319,3.0,6.0,60,0.00,,,0.00,,2013-05-21 07:31:00,
2013-05-21 02:40:00,46.0,32.0,-100.00,NNW,330,5.0,8.0,57,-99.99,,,0.00,,2013-05-21 08:40:00,
2013-05-21 03:01:00,46.0,32.0,-100.00,NNW,330,5.0,8.0,57,-99.99,,,0.00,,2013-05-21 09:01:00,
2013-05-21 03:11:00,46.0,32.0,-100.00,NNW,330,5.0,8.0,57,-99.99,,,0.00,,2013-05-21 09:11:00,
2013-05-21 03:21:00,46.0,32.0,-100.00,NNW,330,5.0,8.0,57,-99.99,,,0.00,,2013-05-21 09:21:00,
2013-05-21 03:32:00,46.0,32.0,-100.00,NNW,330,5.0,8.0,57,-99.99,,,0.00,,2013-05-21 09:32:00,
2013-05-21 03:40:00,45.0,31.0,-100.00,North,350,4.0,9.0,58,0.00,,,0.00,,2013-05-21 09:40:00,
2013-05-21 04:02:00,45.0,31.0,-100.00,North,350,4.0,9.0,58,0.00,,,0.00,,2013-05-21 10:02:00,
2013-05-21 04:12:00,45.0,31.0,-100.00,North,350,4.0,9.0,58,0.00,,,0.00,,2013-05-21 10:12:00,
2013-05-21 04:22:00,45.0,31.0,-100.00,North,350,4.0,9.0,58,0.00,,,0.00,,2013-05-21 10:22:00,
2013-05-21 04:32:00,45.0,31.0,-100.00,North,350,4.0,9.0,58,0.00,,,0.00,,2013-05-21 10:32:00,
2013-05-21 04:40:00,40.0,32.0,-100.00,NW,324,3.0,9.0,72,0.00,,,0.00,,2013-05-21 10:40:00,
2013-05-21 05:02:00,40.0,32.0,-100.00,NW,324,3.0,9.0,72,0.00,,,0.00,,2013-05-21 11:02:00,
2013-05-21 05:12:00,40.0,32.0,-100.00,NW,324,3.0,9.0,72,0.00,,,0.00,,2013-05-21 11:12:00,
2013-05-21 05:21:00,40.0,32.0,-100.00,NW,324,3.0,9.0,72,0.00,,,0.00,,2013-05-21 11:21:00,
2013-05-21 05:32:00,40.0,32.0,-100.00,NW,324,3.0,9.0,72,0.00,,,0.00,,2013-05-21 11:32:00,
2013-05-21 05:40:00,39.0,30.0,-100.00,NW,316,3.0,10.0,71,0.00,,,0.00,,2013-05-21 11:40:00,
2013-05-21 06:01:00,39.0,30.0,-100.00,NW,316,3.0,10.0,71,0.00,,,0.00,,2013-05-21 12:01:00,
2013-05-21 06:11:00,39.0,30.0,-100.00,NW,316,3.0,10.0,71,0.00,,,0.00,,2013-05-21 12:11:00,
2013-05-21 06:21:00,39.0,30.0,-100.00,NW,316,3.0,10.0,71,0.00,,,0.00,,2013-05-21 12:21:00,
2013-05-21 06:32:00,39.0,30.0,-100.00,NW,316,3.0,10.0,71,0.00,,,0.00,,2013-05-21 12:32:00,
2013-05-21 06:40:00,44.0,32.0,-100.00,NNW,343,4.0,7.0,62,0.00,,,0.00,,2013-05-21 12:40:00,
2013-05-21 07:01:00,44.0,32.0,-100.00,NNW,343,4.0,7.0,62,0.00,,,0.00,,2013-05-21 13:01:00,
2013-05-21 07:12:00,44.0,32.0,-100.00,NNW,343,4.0,7.0,62,0.00,,,0.00,,2013-05-21 13:12:00,
2013-05-21 07:22:00,44.0,32.0,-100.00,NNW,343,4.0,7.0,62,0.00,,,0.00,,2013-05-21 13:22:00,
2013-05-21 07:32:00,44.0,32.0,-100.00,NNW,343,4.0,7.0,62,0.00,,,0.00,,2013-05-21 13:32:00,
2013-05-21 07:40:00,52.0,33.0,-100.00,NNE,15,4.0,7.0,48,0.00,,,0.00,,2013-05-21 13:40:00,
2013-05-21 08:01:00,52.0,33.0,-100.00,NNE,15,4.0,7.0,48,0.00,,,0.00,,2013-05-21 14:01:00,
2013-05-21 08:11:00,52.0,33.0,-100.00,NNE,15,4.0,7.0,48,0.00,,,0.00,,2013-05-21 14:11:00,
2013-05-21 08:21:00,52.0,33.0,-100.00,NNE,15,4.0,7.0,48,0.00,,,0.00,,2013-05-21 14:21:00,
2013-05-21 08:32:00,52.0,33.0,-100.00,NNE,15,4.0,7.0,48,0.00,,,0.00,,2013-05-21 14:32:00,
2013-05-21 08:40:00,54.0,34.0,-100.00,North,353,6.0,10.0,46,0.00,,,0.00,,2013-05-21 14:40:00,
2013-05-21 09:01:00,54.0,34.0,-100.00,North,353,6.0,10.0,46,0.00,,,0.00,,2013-05-21 15:01:00,
2013-05-21 09:11:00,54.0,34.0,-100.00,North,353,6.0,10.0,46,0.00,,,0.00,,2013-05-21 15:11:00,
2013-05-21 09:21:00,54.0,34.0,-100.00,North,353,6.0,10.0,46,0.00,,,0.00,,2013-05-21 15:21:00,
2013-05-21 09:33:00,54.0,34.0,-100.00,North,353,6.0,10.0,46,0.00,,,0.00,,2013-05-21 15:33:00,
2013-05-21 09:40:00,57.0,31.0,-100.00,North,6,5.0,14.0,37,0.00,,,0.00,,2013-05-21 15:40:00,
2013-05-21 10:03:00,57.0,31.0,-100.00,North,6,5.0,14.0,37,0.00,,,0.00,,2013-05-21 16:03:00,
2013-05-21 10:13:00,57.0,31.0,-100.00,North,6,5.0,14.0,37,0.00,,,0.00,,2013-05-21 16:13:00,
2013-05-21 10:23:00,57.0,31.0,-100.00,North,6,5.0,14.0,37,0.00,,,0.00,,2013-05-21 16:23:00,
2013-05-21 10:32:00,57.0,31.0,-100.00,North,6,5.0,14.0,37,0.00,,,0.00,,2013-05-21 16:32:00,
2013-05-21 10:40:00,60.0,31.0,-100.00,North,5,6.0,13.0,33,0.00,,,0.00,,2013-05-21 16:40:00,
2013-05-21 11:02:00,60.0,31.0,-100.00,North,5,6.0,13.0,33,0.00,,,0.00,,2013-05-21 17:02:00,
2013-05-21 11:12:00,60.0,31.0,-100.00,North,5,6.0,13.0,33,0.00,,,0.00,,2013-05-21 17:12:00,
2013-05-21 11:23:00,60.0,31.0,-100.00,North,5,6.0,13.0,33,0.00,,,0.00,,2013-05-21 17:23:00,
2013-05-21 11:32:00,60.0,31.0,-100.00,North,5,6.0,13.0,33,0.00,,,0.00,,2013-05-21 17:32:00,
2013-05-21 11:40:00,64.0,28.0,-100.00,NNE,14,7.0,16.0,26,0.00,,,0.00,,2013-05-21 17:40:00,
2013-05-21 12:02:00,64.0,28.0,-100.00,NNE,14,7.0,16.0,26,0.00,,,0.00,,2013-05-21 18:02:00,
2013-05-21 12:12:00,64.0,28.0,-100.00,NNE,14,7.0,16.0,26,0.00,,,0.00,,2013-05-21 18:12:00,
2013-05-21 12:22:00,64.0,28.0,-100.00,NNE,14,7.0,16.0,26,0.00,,,0.00,,2013-05-21 18:22:00,
2013-05-21 12:32:00,64.0,28.0,-100.00,NNE,14,7.0,16.0,26,0.00,,,0.00,,2013-05-21 18:32:00,
2013-05-21 12:40:00,69.0,26.0,-100.00,ESE,105,4.0,13.0,20,0.00,,,0.00,,2013-05-21 18:40:00,
2013-05-21 13:01:00,69.0,26.0,-100.00,ESE,105,4.0,13.0,20,0.00,,,0.00,,2013-05-21 19:01:00,
2013-05-21 13:11:00,69.0,26.0,-100.00,ESE,105,4.0,13.0,20,0.00,,,0.00,,2013-05-21 19:11:00,
2013-05-21 13:21:00,69.0,26.0,-100.00,ESE,105,4.0,13.0,20,0.00,,,0.00,,2013-05-21 19:21:00,
2013-05-21 13:32:00,69.0,26.0,-100.00,ESE,105,4.0,13.0,20,0.00,,,0.00,,2013-05-21 19:32:00,
2013-05-21 13:40:00,71.0,28.0,-100.00,South,172,5.0,14.0,20,0.00,,,0.00,,2013-05-21 19:40:00,
2013-05-21 14:03:00,71.0,28.0,-100.00,South,172,5.0,14.0,20,0.00,,,0.00,,2013-05-21 20:03:00,
2013-05-21 14:11:00,71.0,28.0,-100.00,South,172,5.0,14.0,20,0.00,,,0.00,,2013-05-21 20:11:00,
2013-05-21 14:22:00,71.0,28.0,-100.00,South,172,5.0,14.0,20,0.00,,,0.00,,2013-05-21 20:22:00,
2013-05-21 14:32:00,71.0,28.0,-100.00,South,172,5.0,14.0,20,0.00,,,0.00,,2013-05-21 20:32:00,
2013-05-21 14:40:00,71.0,29.0,-100.00,SSE,153,6.0,17.0,21,0.00,,,0.00,,2013-05-21 20:40:00,
2013-05-21 15:02:00,71.0,29.0,-100.00,SSE,153,6.0,17.0,21,0.00,,,0.00,,2013-05-21 21:02:00,
2013-05-21 15:11:00,71.0,29.0,-100.00,SSE,153,6.0,17.0,21,0.00,,,0.00,,2013-05-21 21:11:00,
2013-05-21 15:21:00,71.0,29.0,-100.00,SSE,153,6.0,17.0,21,0.00,,,0.00,,2013-05-21 21:21:00,
2013-05-21 15:33:00,71.0,29.0,-100.00,SSE,153,6.0,17.0,21,0.00,,,0.00,,2013-05-21 21:33:00,
2013-05-21 15:40:00,71.0,28.0,-100.00,South,180,4.0,13.0,20,0.00,,,0.00,,2013-05-21 21:40:00,
2013-05-21 16:02:00,71.0,28.0,-100.00,South,180,4.0,13.0,20,0.00,,,0.00,,2013-05-21 22:02:00,
2013-05-21 16:12:00,71.0,28.0,-100.00,South,180,4.0,13.0,20,0.00,,,0.00,,2013-05-21 22:12:00,
2013-05-21 16:22:00,71.0,28.0,-100.00,South,180,4.0,13.0,20,0.00,,,0.00,,2013-05-21 22:22:00,
2013-05-21 16:33:00,71.0,28.0,-100.00,South,180,4.0,13.0,20,0.00,,,0.00,,2013-05-21 22:33:00,
2013-05-21 16:40:00,74.0,16.0,-100.00,NW,310,6.0,18.0,11,0.00,,,0.00,,2013-05-21 22:40:00,
2013-05-21 17:02:00,74.0,16.0,-100.00,NW,310,6.0,18.0,11,0.00,,,0.00,,2013-05-21 23:02:00,
2013-05-21 17:12:00,74.0,16.0,-100.00,NW,310,6.0,18.0,11,0.00,,,0.00,,2013-05-21 23:12:00,
2013-05-21 17:22:00,74.0,16.0,-100.00,NW,310,6.0,18.0,11,0.00,,,0.00,,2013-05-21 23:22:00,
2013-05-21 17:32:00,74.0,16.0,-100.00,NW,310,6.0,18.0,11,0.00,,,0.00,,2013-05-21 23:32:00,
2013-05-21 17:40:00,72.0,12.0,-100.00,NW,318,7.0,25.0,10,0.00,,,0.00,,2013-05-21 23:40:00,
2013-05-21 18:01:00,72.0,12.0,-100.00,NW,318,7.0,25.0,10,0.00,,,0.00,,2013-05-22 00:01:00,
2013-05-21 18:11:00,72.0,12.0,-100.00,NW,318,7.0,25.0,10,0.00,,,0.00,,2013-05-22 00:11:00,
2013-05-21 18:21:00,72.0,12.0,-100.00,NW,318,7.0,25.0,10,0.00,,,0.00,,2013-05-22 00:21:00,
2013-05-21 18:32:00,72.0,12.0,-100.00,NW,318,7.0,25.0,10,0.00,,,0.00,,2013-05-22 00:32:00,
2013-05-21 18:40:00,68.0,15.0,-100.00,NW,310,6.0,14.0,13,0.00,,,0.00,,2013-05-22 00:40:00,
2013-05-21 19:01:00,68.0,15.0,-100.00,NW,310,6.0,14.0,13,0.00,,,0.00,,2013-05-22 01:01:00,
2013-05-21 19:11:00,68.0,15.0,-100.00,NW,310,6.0,14.0,13,0.00,,,0.00,,2013-05-22 01:11:00,
2013-05-21 19:21:00,68.0,15.0,-100.00,NW,310,6.0,14.0,13,0.00,,,0.00,,2013-05-22 01:21:00,
2013-05-21 19:32:00,68.0,15.0,-100.00,NW,310,6.0,14.0,13,0.00,,,0.00,,2013-05-22 01:32:00,
2013-05-21 19:40:00,65.0,16.0,-100.00,NW,323,4.0,14.0,15,0.00,,,0.00,,2013-05-22 01:40:00,
2013-05-21 20:01:00,65.0,16.0,-100.00,NW,323,4.0,14.0,15,0.00,,,0.00,,2013-05-22 02:01:00,
2013-05-21 20:11:00,65.0,16.0,-100.00,NW,323,4.0,14.0,15,0.00,,,0.00,,2013-05-22 02:11:00,
2013-05-21 20:21:00,65.0,16.0,-100.00,NW,323,4.0,14.0,15,0.00,,,0.00,,2013-05-22 02:21:00,
2013-05-21 20:32:00,65.0,16.0,-100.00,NW,323,4.0,14.0,15,0.00,,,0.00,,2013-05-22 02:32:00,
2013-05-21 20:40:00,58.0,15.0,-100.00,NW,321,3.0,6.0,18,0.00,,,0.00,,2013-05-22 02:40:00,
2013-05-21 21:01:00,58.0,15.0,-100.00,NW,321,3.0,6.0,18,0.00,,,0.00,,2013-05-22 03:01:00,
2013-05-21 21:11:00,58.0,15.0,-100.00,NW,321,3.0,6.0,18,0.00,,,0.00,,2013-05-22 03:11:00,
2013-05-21 21:21:00,58.0,15.0,-100.00,NW,321,3.0,6.0,18,0.00,,,0.00,,2013-05-22 03:21:00,
2013-05-21 21:33:00,58.0,15.0,-100.00,NW,321,3.0,6.0,18,0.00,,,0.00,,2013-05-22 03:33:00,
2013-05-21 21:40:00,55.0,18.0,-100.00,WNW,303,2.0,7.0,23,0.00,,,0.00,,2013-05-22 03:40:00,
2013-05-21 22:03:00,55.0,18.0,-100.00,WNW,303,2.0,7.0,23,0.00,,,0.00,,2013-05-22 04:03:00,
2013-05-21 22:13:00,55.0,18.0,-100.00,WNW,303,2.0,7.0,23,0.00,,,0.00,,2013-05-22 04:13:00,
2013-05-21 22:23:00,55.0,18.0,-100.00,WNW,303,2.0,7.0,23,0.00,,,0.00,,2013-05-22 04:23:00,
2013-05-21 22:33:00,55.0,18.0,-100.00,WNW,303,2.0,7.0,23,0.00,,,0.00,,2013-05-22 04:33:00,
2013-05-21 22:40:00,53.0,18.0,-100.00,WNW,300,0.0,3.0,25,0.00,,,0.00,,2013-05-22 04:40:00,
2013-05-21 23:02:00,53.0,18.0,-100.00,WNW,300,0.0,3.0,25,0.00,,,0.00,,2013-05-22 05:02:00,
2013-05-21 23:12:00,53.0,18.0,-100.00,WNW,300,0.0,3.0,25,0.00,,,0.00,,2013-05-22 05:12:00,
2013-05-21 23:21:00,53.0,18.0,-100.00,WNW,300,0.0,3.0,25,0.00,,,0.00,,2013-05-22 05:21:00,
2013-05-21 23:32:00,53.0,18.0,-100.00,WNW,300,0.0,3.0,25,0.00,,,0.00,,2013-05-22 05:32:00,
2013-05-21 23:40:00,57.0,21.0,-100.00,NW,312,3.0,5.0,24,0.00,,,0.00,,2013-05-22 05:40:00,